Total_Precipitation_Accumulation
2.43 2.50 2.38 2.32 2.20 2.17 2.15 2.05 1.97 1.98 1.88 1.70 1.46 1.43 1.49 1.41 1.44 1.62 1.67 1.71 1.78 2.09 2.53 2.75 2.66 2.46 2.43 2.48 2.52 2.46 2.28 2.10 1.93 1.75 1.54 1.36 1.27 1.22 1.13 1.09 1.06 1.02 1.00
2.69 2.75 2.69 2.61 2.52 2.45 2.51 2.36 2.15 2.32 2.15 2.05 1.86 1.78 1.74 1.78 1.73 1.81 2.01 2.02 1.83 1.87 2.21 2.61 2.79 2.81 2.83 2.77 2.68 2.52 2.37 2.26 2.19 2.09 1.90 1.69 1.51 1.40 1.32 1.27 1.18 1.11 1.08
2.77 2.87 3.02 2.92 2.83 2.76 2.78 2.72 2.61 2.68 2.44 2.29 2.13 2.02 2.00 2.08 2.08 2.00 2.16 2.30 2.08 2.03 2.04 2.20 2.45 2.68 2.87 2.95 2.93 2.82 2.64 2.49 2.38 2.32 2.25 2.07 1.87 1.75 1.65 1.51 1.42 1.37 1.33
2.90 3.19 3.26 3.19 3.19 3.07 3.12 3.22 3.16 2.97 2.84 2.65 2.45 2.16 2.08 2.22 2.24 2.22 2.24 2.38 2.52 2.34 2.23 2.12 2.20 2.37 2.67 2.92 3.06 3.16 3.07 2.89 2.67 2.50 2.42 2.34 2.22 2.06 1.90 1.69 1.59 1.56 1.52
3.41 3.56 3.64 3.64 3.60 3.60 3.58 3.41 3.59 3.42 3.34 3.15 2.72 2.46 2.21 2.15 2.23 2.16 2.24 2.24 2.38 2.42 2.44 2.33 2.23 2.28 2.50 2.87 3.06 3.31 3.38 3.27 3.12 2.87 2.65 2.49 2.46 2.38 2.22 2.03 1.87 1.74 1.64
4.03 4.17 4.10 4.10 4.10 4.11 3.95 3.92 3.95 3.74 3.53 3.48 3.01 2.73 2.50 2.25 2.24 2.23 2.22 2.32 2.27 2.14 2.22 2.33 2.45 2.25 2.40 2.58 2.75 3.03 3.33 3.53 3.48 3.25 3.12 2.94 2.75 2.58 2.33 2.11 1.92 1.81 1.71
4.92 4.96 4.78 4.74 4.62 4.48 4.29 4.20 4.05 3.84 3.58 3.54 3.40 2.94 2.39 2.07 2.03 1.95 2.00 2.20 2.21 2.12 2.14 2.20 2.28 2.23 2.10 2.15 2.25 2.55 2.98 3.44 3.74 3.65 3.45 3.24 2.94 2.70 2.50 2.31 2.11 1.98 1.83
5.75 5.79 5.74 5.54 5.35 5.08 4.62 4.24 4.08 3.86 3.51 3.60 3.57 3.45 2.78 2.32 1.91 1.58 1.68 1.75 1.83 2.00 1.96 1.92 2.03 2.18 2.10 2.06 1.88 2.02 2.31 2.75 3.33 3.65 3.61 3.34 3.11 2.91 2.78 2.65 2.50 2.34 2.14
5.86 6.00 5.98 5.77 5.44 4.89 4.37 4.20 4.13 3.99 3.77 3.68 3.56 3.65 3.15 2.65 2.24 1.78 1.55 1.46 1.56 1.66 1.66 1.69 1.74 1.87 1.87 1.93 1.86 1.85 1.98 2.16 2.67 3.19 3.29 3.08 2.90 2.75 2.68 2.64 2.59 2.51 2.39
5.64 5.53 5.35 4.97 4.60 4.24 3.96 3.84 3.88 3.74 3.72 3.58 3.50 3.22 2.99 2.72 2.46 2.05 1.65 1.45 1.47 1.50 1.51 1.46 1.51 1.72 1.80 1.83 1.84 1.79 1.76 1.85 2.14 2.54 2.82 2.85 2.74 2.67 2.64 2.60 2.58 2.61 2.64
4.87 4.48 4.13 3.88 3.80 3.61 3.40 3.28 3.27 3.19 3.05 2.98 2.99 2.97 2.92 2.67 2.35 2.12 1.84 1.62 1.60 1.48 1.48 1.54 1.60 1.67 1.77 1.83 1.85 1.84 1.80 1.68 1.75 1.89 2.13 2.33 2.47 2.55 2.60 2.67 2.70 2.71 2.73
4.10 3.62 3.37 3.15 3.02 2.85 2.64 2.51 2.50 2.52 2.61 2.66 2.71 2.71 2.67 2.64 2.47 2.39 2.19 1.93 1.80 1.73 1.65 1.61 1.66 1.74 1.89 2.00 1.98 2.15 1.86 1.69 1.65 1.65 1.70 1.83 1.99 2.17 2.32 2.48 2.66 2.74 2.81
3.72 3.23 2.79 2.59 2.37 2.18 2.07 2.03 1.99 1.98 2.09 2.22 2.34 2.39 2.38 2.33 2.29 2.34 2.39 2.17 1.94 1.81 1.70 1.67 1.70 1.78 1.82 1.98 2.18 2.33 1.99 1.83 1.69 1.57 1.52 1.55 1.66 1.76 1.89 2.00 2.20 2.37 2.55
3.09 2.76 2.30 1.95 1.75 1.63 1.55 1.61 1.64 1.67 1.72 1.80 1.88 2.05 2.07 2.01 2.09 2.18 2.26 2.33 2.24 1.97 1.72 1.68 1.77 1.81 1.83 1.84 2.07 2.18 1.87 1.89 1.68 1.57 1.51 1.49 1.50 1.54 1.60 1.70 1.89 2.05 2.15
2.15 1.98 1.76 1.56 1.43 1.39 1.40 1.43 1.42 1.41 1.49 1.57 1.62 1.73 1.84 1.86 1.91 2.00 2.13 2.24 2.28 2.15 1.94 1.79 1.78 1.77 1.79 1.84 2.00 1.63 1.57 1.80 1.67 1.57 1.50 1.40 1.34 1.36 1.38 1.42 1.48 1.59 1.69
1.47 1.42 1.35 1.33 1.27 1.19 1.23 1.29 1.27 1.25 1.34 1.36 1.36 1.45 1.56 1.64 1.74 1.83 1.96 2.04 2.10 2.06 1.98 1.77 1.70 1.71 1.70 1.64 1.79 1.46 1.46 1.64 1.53 1.44 1.37 1.31 1.25 1.25 1.25 1.28 1.35 1.37 1.39
1.19 1.18 1.18 1.18 1.15 1.13 1.13 1.12 1.09 1.09 1.14 1.27 1.36 1.40 1.46 1.53 1.61 1.63 1.65 1.71 1.84 1.95 2.04 1.95 1.77 1.73 1.73 1.67 1.57 1.37 1.28 1.25 1.28 1.35 1.30 1.27 1.20 1.14 1.15 1.13 1.10 1.10 1.10
1.07 1.10 1.10 1.10 1.13 1.17 1.18 1.12 1.02 1.00 1.07 1.17 1.25 1.30 1.30 1.29 1.36 1.47 1.53 1.52 1.57 1.68 1.81 1.87 1.75 1.61 1.58 1.57 1.53 1.45 1.22 1.10 1.10 1.14 1.08 1.04 1.05 1.02 0.97 0.97 0.97 0.94 0.91
1.07 1.03 0.99 1.03 1.10 1.15 1.13 1.08 1.01 0.98 1.00 1.06 1.09 1.10 1.10 1.13 1.12 1.17 1.25 1.30 1.32 1.34 1.48 1.54 1.52 1.47 1.42 1.36 1.42 1.41 1.28 1.29 1.09 1.05 0.96 0.88 0.85 0.84 0.81 0.78 0.81 0.86 0.84
1.02 1.04 1.02 0.98 0.98 0.94 0.87 0.83 0.82 0.84 0.85 0.86 0.87 0.86 0.92 1.01 1.03 1.05 1.04 1.08 1.11 1.21 1.30 1.35 1.32 1.32 1.34 1.26 1.29 1.35 1.31 1.24 1.11 0.91 0.93 0.81 0.73 0.67 0.67 0.69 0.67 0.68 0.72
0.86 0.87 0.88 0.83 0.76 0.66 0.58 0.57 0.61 0.63 0.66 0.68 0.70 0.68 0.69 0.81 0.90 0.86 0.80 0.89 1.01 1.14 1.21 1.23 1.16 1.11 1.11 1.18 1.18 1.15 1.15 1.16 1.08 0.94 0.98 0.88 0.80 0.76 0.76 0.74 0.70 0.65 0.66
0.90 0.81 0.76 0.74 0.67 0.52 0.51 0.47 0.53 0.61 0.67 0.67 0.70 0.71 0.64 0.67 0.70 0.67 0.65 0.77 0.93 0.97 1.03 1.12 1.11 1.11 1.11 1.12 1.13 1.12 1.18 1.23 1.23 1.03 1.01 0.92 0.84 0.87 0.85 0.80 0.74 0.66 0.62
0.98 0.95 0.84 0.77 0.73 0.65 0.53 0.44 0.48 0.59 0.68 0.68 0.69 0.68 0.59 0.56 0.61 0.62 0.63 0.66 0.73 0.74 0.83 1.00 1.11 1.09 1.11 1.17 1.23 1.18 1.26 1.31 1.28 1.17 1.21 1.13 0.94 0.87 0.71 0.63 0.66 0.59 0.58
0.95 0.93 0.87 0.79 0.70 0.54 0.39 0.34 0.35 0.48 0.63 0.66 0.66 0.66 0.67 0.64 0.59 0.60 0.59 0.62 0.70 0.76 0.78 0.82 1.01 1.02 0.99 1.07 1.16 1.23 1.32 1.33 1.30 1.24 1.31 1.31 1.02 0.93 0.75 0.77 0.70 0.56 0.52
0.83 0.79 0.72 0.67 0.66 0.51 0.32 0.27 0.30 0.49 0.65 0.63 0.59 0.54 0.56 0.60 0.60 0.58 0.61 0.72 0.79 0.85 0.71 0.71 0.81 0.89 0.91 0.96 0.98 1.08 1.30 1.47 1.42 1.22 1.21 1.31 1.11 1.00 0.88 0.85 0.76 0.66 0.56
0.74 0.66 0.59 0.62 0.63 0.58 0.43 0.35 0.37 0.49 0.60 0.57 0.58 0.55 0.50 0.50 0.51 0.52 0.60 0.74 0.83 0.83 0.75 0.76 0.92 1.01 0.99 1.06 1.03 1.09 1.34 1.44 1.39 1.35 1.19 1.23 1.20 1.19 1.14 0.89 0.80 0.75 0.70